Location: Bishop�s Knoyle
(51.0728°N, 2.1714°W)
Time: 14:27:06
(UTC+00:00)

NOSS 3-4 (C) - Pass Details

Date: 26 January 2021
Orbit: 878 x 1335 km, 63.4° (Epoch: 16 February)

Event Time Altitude Azimuth Distance (km) Brightness Sun altitude
Rises 18:58:53 0° 295° (WNW) 3,607 7.5 -20.1°
Reaches altitude 10° 19:01:43 10° 307° (NW) 2,719 6.5 -20.6°
Maximum altitude 19:07:12 29° 6° (N) 1,814 4.8 -21.4°
Enters shadow 19:09:35 24° 38° (NE) 2,074 4.8 -21.8°
